Location: Moscow
(38.3171°N, 79.0889°W)
Time: 00:55:44
(UTC+00:00)

Cosmos 1302 Rocket - Pass Details

Date: 07 November 2025
Orbit: 752 x 772 km, 74.0° (Epoch: 08 December)

Event Time Altitude Azimuth Distance (km) Brightness Sun altitude
Rises 23:13:25 0° 338° (NNW) 3,223 7.4 -12.7°
Reaches altitude 10° 23:15:47 10° 336° (NNW) 2,297 6.6 -13.2°
Maximum altitude 23:20:58 68° 255° (WSW) 820 4.4 -14.2°
Drops below altitude 10° 23:26:08 10° 173° (S) 2,295 6.5 -15.2°
Sets 23:28:30 0° 170° (S) 3,220 7.2 -15.7°
